EW7318 Weather Reports


time (UTC)temp
C
wind
direction
speed
KPH
gust
KPH
rain 1hr
cm
rain 24hr
cm
rain mn
cm
humidity
%
barometer
mb
20260507001031 13 222 6.4 12.9 0.00 0.13 0.13 91 1033.4
20260507000542 13 177 1.6 16.1 0.00 0.13 0.13 91 1033.7
20260507000027 13 239 1.6 16.1 0.03 0.13 0.13 91 1033.7
20260506235526 13 151 4.8 11.3 0.03 0.13 0.13 91 1033.7
20260506235025 13 151 3.2 11.3 0.03 0.13 0.13 90 1033.7
20260506234524 13 184 4.8 11.3 0.03 0.13 0.13 90 1033.7
20260506234023 13 144 1.6 12.9 0.03 0.13 0.13 90 1033.7
20260506233521 13 172 6.4 12.9 0.03 0.13 0.13 89 1033.7
20260506232518 13 179 3.2 11.3 0.03 0.13 0.13 89 1033.7
20260506232016 13 189 3.2 9.7 0.03 0.13 0.13 89 1033.7
20260506231515 13 225 4.8 9.7 0.03 0.13 0.13 88 1033.7
20260506231014 13 204 1.6 9.7 0.03 0.13 0.13 88 1034.1
20260506230010 13 199 3.2 9.7 0.00 0.10 0.10 88 1033.7
20260506225510 13 150 1.6 11.3 0.00 0.10 0.10 88 1033.7
20260506225008 13 201 6.4 16.1 0.03 0.10 0.10 88 1033.7
20260506224507 13 256 6.4 16.1 0.03 0.10 0.10 88 1033.4
20260506224005 13 250 8.0 9.7 0.03 0.10 0.10 87 1033.7
20260506223505 13 169 1.6 6.4 0.03 0.10 0.10 87 1033.4
20260506223002 13 221 6.4 9.7 0.03 0.10 0.10 87 1033.4
20260506222501 13 148 1.6 9.7 0.03 0.10 0.10 87 1033.7
20260506221959 13 151 0.0 12.9 0.03 0.10 0.10 87 1033.7
20260506220455 13 212 3.2 11.3 0.03 0.10 0.10 87 1033.4
20260506215954 13 84 3.2 12.9 0.03 0.10 0.10 87 1033.7
20260506214950 13 148 0.0 22.5 0.03 0.08 0.08 87 1034.1
20260506214449 14 172 4.8 12.9 0.03 0.08 0.08 87 1034.1
20260506213947 14 122 6.4 17.7 0.03 0.08 0.08 86 1034.1
20260506213447 14 211 14.5 17.7 0.03 0.08 0.08 86 1034.1
20260506212945 14 156 3.2 14.5 0.03 0.08 0.08 86 1034.1
20260506212444 14 226 3.2 14.5 0.03 0.08 0.08 86 1034.4
20260506211942 14 148 1.6 9.7 0.03 0.08 0.08 85 1034.4
20260506211442 14 151 6.4 12.9 0.03 0.08 0.08 85 1034.4
20260506210939 14 174 3.2 12.9 0.03 0.08 0.08 85 1034.4
20260506210451 15 141 3.2 12.9 0.03 0.08 0.08 85 1034.4
20260506205937 15 198 6.4 12.9 0.03 0.08 0.08 85 1034.4
20260506204934 15 162 9.7 22.5 0.00 0.05 0.05 84 1034.4
20260506204433 15 315 3.2 22.5 0.00 0.05 0.05 84 1034.4
20260506203430 15 187 12.9 14.5 0.00 0.05 0.05 84 1034.4
20260506202927 15 109 1.6 14.5 0.03 0.05 0.05 84 1034.8
20260506202426 15 169 1.6 27.4 0.03 0.05 0.05 84 1034.4
20260506201925 15 149 3.2 27.4 0.03 0.05 0.05 84 1034.8
20260506201424 15 160 4.8 12.9 0.05 0.05 0.05 84 1034.8
20260506200922 15 204 8.0 11.3 0.05 0.05 0.05 84 1034.8
20260506200423 15 146 6.4 14.5 0.05 0.05 0.05 84 1034.4
20260506195919 15 225 6.4 14.5 0.05 0.05 0.05 84 1034.8
20260506195419 15 217 3.2 12.9 0.05 0.05 0.05 84 1034.8
20260506194917 15 233 4.8 14.5 0.05 0.05 0.05 84 1034.8
20260506194416 15 138 3.2 14.5 0.05 0.05 0.05 84 1034.8
20260506193914 15 264 4.8 12.9 0.05 0.05 0.05 84 1034.8
20260506193412 15 298 3.2 12.9 0.05 0.05 0.05 83 1035.1
20260506192911 15 184 1.6 20.9 0.03 0.03 0.03 82 1035.1
20260506192410 15 211 0.0 20.9 0.03 0.03 0.03 81 1035.4
20260506191908 16 178 1.6 14.5 0.00 0.00 0.00 80 1035.1
20260506191408 16 145 1.6 24.1 0.00 0.00 0.00 78 1034.8
20260506190905 16 151 3.2 24.1 0.00 0.00 0.00 77 1035.1
20260506185902 16 237 4.8 27.4 0.00 0.00 0.00 75 1035.1
20260506185400 17 135 1.6 27.4 0.00 0.00 0.00 72 1034.8
20260506184859 17 200 6.4 20.9 0.00 0.00 0.00 71 1035.4
20260506183856 17 180 4.8 33.8 0.00 0.00 0.00 70 1035.1
20260506183355 17 222 6.4 25.7 0.00 0.00 0.00 69 1035.4
20260506182854 17 215 17.7 25.7 0.00 0.00 0.00 69 1035.4
20260506182354 17 171 6.4 14.5 0.00 0.00 0.00 68 1035.1
20260506181850 17 152 3.2 16.1 0.00 0.00 0.00 68 1035.4
20260506181349 18 188 1.6 16.1 0.00 0.00 0.00 68 1035.8
20260506180847 18 204 4.8 16.1 0.00 0.00 0.00 67 1035.4
20260506175846 18 174 6.4 22.5 0.00 0.00 0.00 67 1035.4
20260506175344 18 175 3.2 17.7 0.00 0.00 0.00 67 1035.4
20260506174842 18 153 3.2 24.1 0.00 0.00 0.00 67 1035.8
20260506174341 18 177 12.9 24.1 0.00 0.00 0.00 66 1035.8
20260506173838 18 187 11.3 29.0 0.00 0.00 0.00 65 1035.8
20260506173337 18 140 6.4 29.0 0.00 0.00 0.00 65 1036.1
20260506172836 19 125 9.7 22.5 0.00 0.00 0.00 64 1036.1
20260506172333 19 231 9.7 38.6 0.00 0.00 0.00 64 1036.1
20260506171831 19 249 11.3 38.6 0.00 0.00 0.00 64 1036.4
20260506171331 20 248 8.0 22.5 0.00 0.00 0.00 63 1036.1
20260506170828 19 165 8.0 20.9 0.00 0.00 0.00 63 1036.1
20260506170328 20 203 8.0 37.0 0.00 0.00 0.00 62 1035.8
20260506165826 20 124 6.4 37.0 0.00 0.00 0.00 62 1036.1
20260506164319 20 286 8.0 25.7 0.00 0.00 0.00 63 1036.1
20260506163817 20 162 4.8 33.8 0.00 0.00 0.00 61 1036.4
20260506163317 20 165 4.8 33.8 0.00 0.00 0.00 62 1036.4
20260506162812 20 191 4.8 30.6 0.00 0.00 0.00 62 1036.4
20260506162313 20 222 14.5 24.1 0.00 0.00 0.00 62 1036.8
20260506161812 19 198 9.7 24.1 0.00 0.00 0.00 63 1036.8
20260506161310 20 147 9.7 17.7 0.00 0.00 0.00 62 1036.4
20260506160807 20 122 4.8 12.9 0.00 0.00 0.00 61 1036.4
20260506160307 20 175 3.2 12.9 0.00 0.00 0.00 62 1036.8
20260506155806 20 268 6.4 20.9 0.00 0.00 0.00 61 1036.8
20260506155306 20 192 9.7 20.9 0.00 0.00 0.00 61 1036.8
20260506154802 21 125 4.8 20.9 0.00 0.00 0.00 61 1037.1
20260506154301 20 163 6.4 20.9 0.00 0.00 0.00 61 1036.8
20260506153800 20 185 8.0 22.5 0.00 0.00 0.00 61 1036.8
20260506152757 20 115 4.8 20.9 0.00 0.00 0.00 60 1037.1
20260506152256 21 243 11.3 20.9 0.00 0.00 0.00 60 1037.1
20260506151253 21 172 3.2 22.5 0.00 0.00 0.00 61 1037.1
20260506150751 20 167 8.0 22.5 0.00 0.00 0.00 60 1036.8
20260506150251 20 217 6.4 20.9 0.00 0.00 0.00 61 1037.1
20260506145747 20 191 11.3 17.7 0.00 0.00 0.00 62 1037.5
20260506145247 20 162 9.7 17.7 0.00 0.00 0.00 62 1037.1
20260506144244 20 150 4.8 12.9 0.00 0.00 0.00 61 1037.1
20260506143742 20 77 6.4 12.9 0.00 0.00 0.00 63 1036.8
20260506143242 19 168 3.2 14.5 0.00 0.00 0.00 64 1037.1
20260506142741 19 183 3.2 14.5 0.00 0.00 0.00 64 1037.1
20260506142238 19 140 6.4 12.9 0.00 0.00 0.00 64 1037.1
20260506141735 19 248 8.0 24.1 0.00 0.00 0.00 64 1037.1
20260506141234 19 91 6.4 24.1 0.00 0.00 0.00 64 1037.5
20260506140733 19 263 0.0 20.9 0.00 0.00 0.00 64 1037.1
20260506140234 18 159 6.4 20.9 0.00 0.00 0.00 65 1037.1
20260506135730 19 119 4.8 14.5 0.00 0.00 0.00 64 1037.1
20260506135230 19 194 4.8 20.9 0.00 0.00 0.00 64 1037.1
20260506134727 19 170 8.0 20.9 0.00 0.00 0.00 64 1037.1
20260506134226 20 209 8.0 25.7 0.00 0.00 0.00 62 1036.8
20260506133725 19 187 3.2 25.7 0.00 0.00 0.00 63 1037.5
20260506133223 20 159 1.6 20.9 0.00 0.00 0.00 63 1037.5
20260506132721 19 200 4.8 17.7 0.00 0.00 0.00 64 1037.5
20260506131719 18 228 6.4 20.9 0.00 0.00 0.00 66 1037.8
20260506131217 18 96 6.4 17.7 0.00 0.00 0.00 67 1037.5
20260506130717 18 226 6.4 17.7 0.00 0.00 0.00 68 1037.8
20260506130214 18 144 6.4 12.9 0.00 0.00 0.00 68 1037.5
20260506125712 18 139 1.6 11.3 0.00 0.00 0.00 69 1037.5
20260506124708 17 28 4.8 20.9 0.00 0.00 0.00 71 1037.5
20260506124220 17 200 1.6 20.9 0.00 0.00 0.00 72 1037.5
20260506123705 17 229 8.0 17.7 0.00 0.00 0.00 72 1037.8
20260506123203 16 143 4.8 17.7 0.00 0.00 0.00 73 1037.5
20260506122702 16 173 3.2 11.3 0.00 0.00 0.00 73 1037.5
20260506122202 16 200 4.8 20.9 0.00 0.00 0.00 74 1037.5
20260506121659 16 279 4.8 20.9 0.00 0.00 0.00 75 1037.5
20260506121158 16 143 4.8 17.7 0.00 0.00 0.00 75 1037.5
20260506120655 16 207 8.0 16.1 0.00 0.00 0.00 76 1037.5
20260506120154 15 230 6.4 16.1 0.00 0.00 0.00 77 1037.8
20260506115653 15 219 1.6 12.9 0.00 0.00 0.00 78 1037.8
20260506115151 15 130 1.6 12.9 0.00 0.00 0.00 78 1037.8
20260506114649 15 142 6.4 22.5 0.00 0.00 0.00 78 1037.8
20260506114150 15 160 9.7 22.5 0.00 0.00 0.00 78 1037.8
20260506113146 15 164 3.2 20.9 0.00 0.00 0.00 79 1038.1
20260506112644 15 161 3.2 20.9 0.00 0.00 0.00 79 1038.1
20260506112143 15 180 4.8 11.3 0.00 0.00 0.00 80 1037.8
20260506111641 14 158 0.0 12.9 0.00 0.00 0.00 81 1038.1
20260506111153 14 192 3.2 11.3 0.00 0.00 0.00 81 1038.1
20260506110652 14 197 4.8 6.4 0.00 0.00 0.00 82 1038.1
20260506110137 13 136 4.8 6.4 0.00 0.00 0.00 82 1038.1
20260506105636 13 148 1.6 11.3 0.00 0.00 0.00 82 1037.8
20260506105136 13 112 1.6 11.3 0.00 0.00 0.00 82 1038.1
20260506104632 13 137 3.2 6.4 0.00 0.00 0.00 82 1037.8
20260506104131 13 215 4.8 9.7 0.00 0.00 0.00 82 1037.8
20260506103630 13 148 1.6 9.7 0.00 0.00 0.00 82 1037.8
20260506103129 13 138 0.0 12.9 0.00 0.00 0.00 82 1037.8
20260506102625 13 177 1.6 12.9 0.00 0.00 0.00 82 1037.8
20260506101623 13 134 3.2 6.4 0.00 0.00 0.00 82 1037.8
20260506101123 13 161 4.8 6.4 0.00 0.00 0.00 83 1037.8
20260506100620 13 149 1.6 9.7 0.00 0.00 0.00 82 1037.5
20260506095617 13 194 1.6 12.9 0.00 0.00 0.00 82 1037.5
20260506095118 13 148 3.2 11.3 0.00 0.00 0.00 82 1037.8
20260506094614 13 148 1.6 11.3 0.00 0.00 0.00 82 1037.5
20260506094112 13 210 4.8 9.7 0.00 0.00 0.00 82 1037.5
20260506093610 13 145 1.6 4.8 0.00 0.00 0.00 81 1037.5
20260506093110 13 162 1.6 9.7 0.00 0.00 0.00 81 1037.5
20260506092107 14 175 3.2 16.1 0.00 0.00 0.00 81 1037.5
20260506091604 14 228 3.2 9.7 0.00 0.00 0.00 80 1037.8
20260506091102 14 136 3.2 11.3 0.00 0.00 0.00 80 1037.5
20260506090559 14 209 4.8 11.3 0.00 0.00 0.00 80 1037.8
20260506090059 14 295 3.2 16.1 0.00 0.00 0.00 80 1037.5
20260506085556 14 259 6.4 16.1 0.00 0.00 0.00 79 1037.8
20260506085056 14 217 1.6 16.1 0.00 0.00 0.00 79 1037.8
20260506084553 15 229 11.3 17.7 0.00 0.00 0.00 79 1037.8
20260506083551 15 135 4.8 16.1 0.00 0.00 0.00 79 1038.1
20260506083050 15 24 8.0 16.1 0.00 0.00 0.00 78 1038.1
20260506082048 15 205 8.0 25.7 0.00 0.00 0.00 78 1037.8
20260506081545 15 132 4.8 12.9 0.00 0.00 0.00 78 1037.8
20260506081044 15 142 6.4 22.5 0.00 0.00 0.00 78 1037.8
20260506080541 15 155 6.4 22.5 0.00 0.00 0.00 77 1037.8
20260506073029 15 213 6.4 22.5 0.00 0.00 0.00 76 1037.8
20260506072526 15 123 6.4 20.9 0.00 0.00 0.00 76 1037.8
20260506072024 15 163 6.4 24.1 0.00 0.00 0.00 76 1037.8
20260506071523 15 198 3.2 24.1 0.00 0.00 0.00 76 1037.5
20260506071022 15 205 6.4 16.1 0.00 0.00 0.00 76 1037.8
20260506070520 15 159 6.4 20.9 0.00 0.00 0.00 76 1037.8
20260506062508 15 50 11.3 22.5 0.00 0.00 0.00 75 1037.5
20260506062007 15 233 4.8 17.7 0.00 0.00 0.00 75 1037.5
20260506061506 15 256 14.5 17.7 0.00 0.00 0.00 75 1037.5
20260506061004 15 209 11.3 17.7 0.00 0.00 0.00 75 1037.5
20260506060504 15 265 9.7 22.5 0.00 0.00 0.00 75 1037.5
20260506050948 15 162 4.8 22.5 0.00 0.00 0.00 72 1038.1
20260506050445 15 242 9.7 22.5 0.00 0.00 0.00 71 1037.8
20260506043937 16 242 8.0 22.5 0.00 0.00 0.00 69 1038.1
20260506043436 16 183 8.0 22.5 0.00 0.00 0.00 68 1038.1
20260506042934 16 159 9.7 22.5 0.00 0.00 0.00 68 1038.1
20260506042432 16 151 3.2 24.1 0.00 0.00 0.00 68 1038.1
20260506041428 16 189 4.8 20.9 0.00 0.00 0.00 67 1038.1
20260506040425 16 155 1.6 22.5 0.00 0.00 0.00 67 1037.8
20260506035925 16 159 4.8 22.5 0.00 0.00 0.00 67 1038.1
20260506034924 16 161 9.7 24.1 0.00 0.00 0.00 67 1038.1
20260506034421 16 196 6.4 17.7 0.00 0.00 0.00 67 1038.1
20260506033921 16 170 1.6 17.7 0.00 0.00 0.00 67 1038.1
20260506033418 16 223 4.8 20.9 0.00 0.00 0.00 66 1037.8
20260506032919 16 190 6.4 20.9 0.00 0.00 0.00 66 1038.1
20260506032416 16 183 4.8 12.9 0.00 0.00 0.00 66 1037.8
20260506031915 16 146 1.6 16.1 0.00 0.00 0.00 65 1037.8
20260506031412 16 240 6.4 22.5 0.00 0.00 0.00 65 1037.8
20260506030913 16 194 6.4 22.5 0.00 0.00 0.00 65 1038.1
20260506030410 16 247 6.4 20.9 0.00 0.00 0.00 64 1037.8
20260506025909 16 341 6.4 17.7 0.00 0.00 0.00 64 1037.8
20260506025407 16 267 8.0 20.9 0.00 0.00 0.00 64 1038.1
20260506024906 16 225 8.0 20.9 0.00 0.00 0.00 64 1037.8
20260506023902 16 185 6.4 16.1 0.00 0.00 0.00 64 1037.8
20260506022858 16 173 4.8 17.7 0.00 0.00 0.00 64 1037.8
20260506021856 16 158 3.2 20.9 0.00 0.00 0.00 63 1037.8
20260506021355 16 161 3.2 16.1 0.00 0.00 0.00 63 1037.8
20260506020854 16 247 11.3 20.9 0.00 0.00 0.00 63 1037.8
20260506015850 16 200 3.2 25.7 0.00 0.00 0.00 62 1037.8
20260506015348 16 209 14.5 25.7 0.00 0.00 0.00 62 1037.8
20260506014846 16 126 4.8 25.7 0.00 0.00 0.00 62 1037.8
20260506014343 16 236 9.7 16.1 0.00 0.00 0.00 61 1037.5
20260506013844 16 168 3.2 16.1 0.00 0.00 0.00 62 1037.8
20260506013340 16 237 4.8 24.1 0.00 0.00 0.00 62 1037.8
20260506012838 16 190 1.6 24.1 0.00 0.00 0.00 63 1037.8
20260506012336 16 144 6.4 17.7 0.00 0.00 0.00 64 1037.8
20260506011835 16 169 8.0 17.7 0.00 0.00 0.00 64 1037.8
20260506011334 16 177 1.6 12.9 0.00 0.00 0.00 65 1037.8
20260506005828 15 208 6.4 16.1 0.00 0.00 0.00 66 1037.8
20260506005325 15 193 3.2 16.1 0.00 0.00 0.00 66 1037.5
20260506004825 15 324 8.0 11.3 0.00 0.00 0.00 67 1037.5
20260506003319 15 231 6.4 12.9 0.00 0.00 0.00 66 1037.5
20260506002819 15 200 6.4 14.5 0.00 0.00 0.00 66 1037.1
20260506001815 15 157 1.6 17.7 0.00 0.00 0.00 66 1037.1